1498136400.32,9249,22.0,74296.5,21.63,-18.69,-18.11,0,*72
1498136401.57,9250,22.0,74298.5,21.65,-18.41,-17.79,0,*77
1498136402.81,9251,21.94,74296.5,21.69,-17.73,-17.17,0,*7C
1498136404.07,9252,22.0,74296.5,21.69,-17.41,-16.79,0,*77
1498136405.28,9253,21.94,74292.8,21.71,-17.35,-16.75,0,*70
1498136406.51,9254,22.0,74294.0,21.75,-16.89,-16.17,0,*71
1498136407.73,9255,21.94,74292.8,21.75,-17.87,-17.21,0,*7B
1498136409.0,9256,22.0,74294.0,21.81,-17.63,-17.11,0,*7A
1498136410.22,9257,22.0,74296.0,21.79,-16.97,-16.27,0,*72
1498136411.51,9258,22.0,74294.3,21.81,-16.65,-16.17,0,*74
1498136412.76,9259,22.0,74292.5,21.85,-16.75,-16.17,0,*70
1498136413.98,9260,22.0,74292.8,21.89,-17.73,-17.03,0,*75
1498136415.21,9261,21.94,74288.5,21.89,-17.41,-16.79,0,*79
1498136416.43,9262,22.0,74292.3,21.89,-17.73,-17.17,0,*72
1498136417.68,9263,22.0,74294.5,21.91,-18.11,-17.41,0,*72
1498136418.91,9264,22.0,74290.8,21.91,-18.73,-18.17,0,*7D
1498136420.16,9265,22.0,74292.8,21.91,-18.93,-18.41,0,*71
1498136421.4,9266,22.0,74292.3,21.91,-17.55,-16.93,0,*76
1498136422.68,9267,22.0,74288.8,21.91,-18.31,-17.55,0,*71
1498136423.93,9268,21.94,74288.3,21.93,-18.55,-17.97,0,*70
1498136425.16,9269,22.0,74290.0,21.93,-19.31,-18.99,0,*73
1498136426.42,9270,22.0,74292.0,21.95,-19.31,-18.73,0,*79
1498136427.63,9271,22.0,74288.8,21.93,-19.47,-18.89,0,*7A
1498136428.86,9272,22.0,74290.5,21.93,-19.91,-19.41,0,*77
1498136430.09,9273,22.0,74288.8,21.91,-18.11,-17.69,0,*79
1498136431.29,9274,22.0,74288.0,21.93,-17.49,-16.75,0,*72
1498136432.5,9275,22.0,74292.0,21.93,-17.35,-16.75,0,*78
1498136433.76,9276,21.94,74288.3,21.95,-17.45,-16.75,0,*7A
1498136435.01,9277,21.94,74290.3,21.97,-18.31,-17.55,0,*76
1498136436.21,9278,22.0,74286.8,21.97,-18.49,-18.07,0,*7E
1498136437.43,9279,22.0,74288.8,21.97,-18.35,-17.69,0,*73
1498136438.65,9280,22.0,74292.8,21.97,-18.17,-17.55,0,*7A
1498136439.88,9281,22.0,74290.0,21.97,-19.27,-18.69,0,*79
1498136441.1,9282,22.0,74292.8,21.97,-18.35,-17.73,0,*7C
1498136442.33,9283,22.0,74292.3,21.99,-19.03,-18.45,0,*7D
1498136443.55,9284,22.0,74290.8,22.03,-18.25,-17.49,0,*7C
1498136444.83,9285,22.0,74290.3,22.03,-17.45,-16.65,0,*7B
1498136446.07,9286,22.0,74290.5,22.03,-17.59,-16.93,0,*7C
1498136447.3,9287,22.0,74290.8,22.05,-18.41,-17.79,0,*78
1498136448.55,9288,22.0,74288.3,22.05,-17.97,-17.21,0,*7E
1498136449.8,9289,22.0,74292.8,22.03,-18.99,-18.35,0,*72
1498136451.07,9290,22.0,74290.5,22.03,-18.55,-17.93,0,*79
1498136452.27,9291,22.0,74294.8,22.05,-19.03,-18.49,0,*74
1498136453.53,9292,22.0,74290.0,22.03,-17.97,-17.35,0,*76
1498136454.78,9293,22.0,74290.5,22.03,-17.59,-16.79,0,*7C
1498136456.03,9294,22.0,74290.5,22.05,-18.35,-17.63,0,*72
1498136457.23,9295,22.0,74290.5,22.05,-18.07,-17.35,0,*71
1498136458.45,9296,22.0,74290.3,22.05,-18.99,-18.35,0,*7A
1498136459.67,9297,22.0,74288.3,22.07,-18.99,-18.49,0,*72
1498136460.86,9298,22.0,74286.8,22.05,-18.73,-18.25,0,*71
1498136462.07,9299,22.0,74290.8,22.05,-19.13,-18.49,0,*7D
1498136463.34,9300,22.0,74290.8,22.07,-18.93,-18.35,0,*7C
1498136464.59,9301,22.0,74288.8,22.07,-18.07,-17.45,0,*78
1498136465.84,9302,22.0,74290.5,22.07,-18.07,-17.55,0,*7A
1498136467.09,9303,22.0,74288.8,22.07,-18.17,-17.55,0,*7A
1498136468.37,9304,22.0,74292.8,22.07,-18.31,-17.59,0,*75
1498136469.61,9305,22.0,74290.5,22.07,-19.91,-19.23,0,*7C
1498136470.85,9306,22.0,74292.0,22.07,-20.35,-19.75,0,*78
1498136472.06,9307,22.0,74288.8,22.05,-20.09,-19.61,0,*71
1498136473.31,9308,22.0,74292.0,22.05,-19.61,-18.89,0,*7D
1498136474.56,9309,22.0,74290.3,22.05,-18.35,-17.55,0,*72
1498136475.78,9310,22.0,74290.5,22.05,-18.59,-18.07,0,*78
1498136477.0,9311,22.0,74288.8,22.05,-19.95,-19.41,0,*7B
1498136478.25,9312,22.0,74294.0,22.03,-19.81,-19.17,0,*78
1498136479.49,9313,22.0,74288.3,22.07,-18.55,-17.73,0,*79
1498136480.71,9314,22.0,74296.5,22.07,-18.45,-17.73,0,*7F
1498136481.9,9315,22.0,74294.5,22.05,-20.25,-19.75,0,*79
1498136483.1,9316,22.0,74292.3,22.05,-19.91,-19.13,0,*7F
1498136484.29,9317,22.0,74298.3,22.05,-18.99,-18.25,0,*73
1498136485.48,9318,22.0,74292.8,22.05,-19.47,-18.99,0,*79
1498136486.7,9319,22.0,74294.0,22.05,-18.41,-17.63,0,*75
1498136487.98,9320,22.0,74294.5,22.07,-18.35,-17.59,0,*77
1498136489.19,9321,22.0,74290.0,22.05,-18.49,-17.93,0,*79
1498136490.39,9322,22.0,74294.5,22.09,-18.73,-18.17,0,*7C
1498136491.59,9323,22.0,74294.5,22.09,-18.73,-18.17,0,*7D
1498136492.78,9324,22.0,74290.0,22.05,-19.17,-18.49,0,*7E
1498136494.03,9325,22.0,74294.5,22.07,-17.25,-16.55,0,*71
1498136495.24,9326,22.0,74292.5,22.09,-18.79,-18.11,0,*74
1498136496.48,9327,22.0,74294.5,22.11,-19.41,-18.79,0,*78
1498136497.71,9328,22.0,74292.0,22.09,-19.31,-18.45,0,*76
1498136498.96,9329,22.0,74294.5,22.09,-19.31,-18.89,0,*77
1498136500.19,9330,22.0,74296.8,22.09,-20.59,-19.85,0,*76
1498136501.41,9331,22.0,74296.3,22.09,-22.27,-21.57,0,*78
1498136502.63,9332,22.0,74294.8,22.05,-20.89,-20.35,0,*74
1498136503.85,9333,22.0,74298.0,22.05,-20.53,-19.91,0,*76
1498136505.08,9334,22.0,74294.0,21.99,-20.63,-19.99,0,*7C
1498136506.34,9335,22.0,74294.5,21.99,-19.81,-18.89,0,*7B
1498136507.58,9336,22.0,74298.0,21.99,-19.47,-18.59,0,*7F
1498136508.84,9337,22.0,74296.8,22.03,-19.27,-18.49,0,*79
1498136510.03,9338,22.0,74294.8,21.97,-21.43,-20.69,0,*78
1498136511.26,9339,22.0,74296.3,21.99,-21.09,-20.29,0,*7D
1498136512.47,9340,22.0,74300.0,21.97,-20.35,-19.75,0,*70
1498136513.74,9341,22.0,74296.8,21.95,-20.53,-19.81,0,*78
1498136514.96,9342,22.0,74296.5,21.97,-20.19,-19.51,0,*7A
1498136516.19,9343,22.0,74298.5,21.95,-20.63,-19.95,0,*7C
1498136517.45,9344,22.0,74298.5,21.95,-21.17,-20.49,0,*72
1498136518.7,9345,22.0,74298.8,21.93,-21.83,-21.27,0,*71
1498136519.96,9346,22.0,74296.5,21.91,-22.57,-21.87,0,*70
1498136521.22,9347,22.0,74298.3,21.91,-21.53,-20.73,0,*7C
1498136522.47,9348,22.0,74292.8,21.87,-21.57,-20.83,0,*7F
1498136523.7,9349,22.0,74292.3,21.87,-21.73,-20.99,0,*73
1498136524.96,9350,22.0,74294.3,21.85,-20.99,-20.39,0,*76
1498136526.17,9351,22.0,74294.3,21.85,-22.07,-21.47,0,*7A
1498136527.4,9352,22.0,74294.0,21.83,-21.03,-20.29,0,*71
1498136528.62,9353,22.0,74290.5,21.83,-20.69,-19.85,0,*71
1498136529.86,9354,22.0,74292.5,21.81,-20.69,-19.81,0,*70
1498136531.11,9355,22.0,74288.3,21.83,-20.53,-19.81,0,*7A
1498136532.33,9356,22.0,74288.5,21.81,-19.95,-19.17,0,*74
1498136533.55,9357,22.0,74288.8,21.81,-20.29,-19.51,0,*7A
1498136534.77,9358,22.0,74288.0,21.83,-20.43,-19.65,0,*7C
1498136536.0,9359,22.0,74290.5,21.79,-21.43,-20.53,0,*76
1498136537.23,9360,22.0,74288.8,21.79,-20.79,-19.91,0,*70
1498136538.43,9361,22.0,74288.3,21.79,-20.63,-19.91,0,*7A
1498136539.69,9362,22.0,74288.8,21.79,-20.49,-19.57,0,*7B
1498136540.89,9363,22.0,74292.0,21.75,-21.17,-20.09,0,*7D
1498136542.14,9364,22.0,74290.0,21.81,-21.33,-20.43,0,*79
1498136543.34,9365,22.0,74284.0,21.75,-19.13,-18.25,0,*71
1498136544.53,9366,22.0,74288.8,21.75,-20.25,-19.47,0,*78
1498136545.75,9367,22.0,74284.5,21.75,-19.61,-18.83,0,*7A
1498136546.99,9368,22.0,74286.0,21.79,-19.81,-18.89,0,*7D
1498136548.19,9369,22.0,74284.3,21.79,-19.71,-18.79,0,*7C
1498136549.41,9370,22.0,74280.8,21.79,-19.99,-19.23,0,*7C
1498136550.64,9371,22.0,74286.3,21.79,-19.99,-19.23,0,*7D
1498136551.88,9372,22.0,74282.0,21.75,-20.15,-19.31,0,*7F
1498136553.14,9373,22.0,74282.0,21.79,-18.93,-17.97,0,*75
1498136554.41,9374,22.0,74280.3,21.81,-18.55,-17.79,0,*7F
1498136555.66,9375,22.0,74280.3,21.81,-18.89,-18.11,0,*7E
1498136556.86,9376,22.0,74284.3,21.83,-18.73,-17.83,0,*7E
1498136558.06,9377,22.0,74282.5,21.83,-20.43,-19.37,0,*76
1498136559.27,9378,22.0,74280.0,21.83,-21.17,-20.39,0,*7D
1498136560.55,9379,22.0,74280.0,21.81,-21.23,-21.03,0,*71
1498136561.77,9380,22.0,74280.3,21.81,-22.57,-22.03,0,*74
1498136563.01,9381,22.0,74278.5,21.75,-22.73,-22.21,0,*78
1498136564.24,9382,22.0,74282.3,21.71,-22.11,-21.33,0,*7B
1498136565.49,9383,22.0,74280.0,21.69,-22.03,-21.23,0,*71
1498136566.75,9384,22.0,74278.3,21.69,-23.13,-22.47,0,*77
1498136568.02,9385,22.0,74282.0,21.65,-23.29,-22.73,0,*74
1498136569.27,9386,22.0,74276.5,21.65,-22.63,-21.83,0,*74
1498136570.49,9387,22.0,74282.5,21.63,-22.63,-21.83,0,*73
1498136571.74,9388,22.0,74282.3,21.61,-21.87,-21.09,0,*75
1498136573.02,9389,22.0,74284.3,21.61,-22.31,-21.53,0,*75
1498136574.23,9390,22.0,74278.5,21.59,-21.13,-20.25,0,*75
1498136575.48,9391,22.0,74282.0,21.57,-19.47,-18.55,0,*7C
1498136576.67,9392,22.0,74282.5,21.59,-19.99,-19.07,0,*74
1498136577.91,9393,22.0,74280.0,21.59,-18.99,-18.01,0,*73
1498136579.14,9394,22.0,74280.8,21.61,-19.81,-18.79,0,*78
1498136580.38,9395,22.0,74282.8,21.61,-19.85,-19.03,0,*71
1498136581.66,9396,22.0,74284.5,21.61,-19.65,-18.93,0,*74
1498136582.91,9397,22.0,74286.3,21.61,-19.57,-18.79,0,*70
1498136584.1,9398,22.0,74284.5,21.63,-20.05,-19.03,0,*7C
1498136585.33,9399,22.0,74284.8,21.61,-19.99,-19.17,0,*75
1498136586.56,9400,22.0,74284.0,21.61,-20.63,-19.95,0,*77
1498136587.81,9401,22.0,74282.0,21.61,-19.85,-19.03,0,*7B
1498136589.06,9402,22.0,74284.3,21.61,-19.65,-18.73,0,*70
1498136590.27,9403,22.0,74284.3,21.63,-18.45,-17.49,0,*76
1498136591.49,9404,22.0,74284.5,21.63,-19.51,-18.59,0,*7B
1498136592.71,9405,22.0,74284.0,21.63,-19.81,-18.99,0,*7B
1498136593.94,9406,22.0,74284.5,21.63,-18.41,-17.41,0,*7F
1498136595.19,9407,22.0,74282.5,21.65,-20.15,-19.37,0,*7D
1498136596.41,9408,22.0,74284.8,21.65,-20.43,-19.75,0,*77
1498136597.66,9409,22.0,74282.8,21.65,-20.69,-19.81,0,*75
1498136598.87,9410,22.0,74284.0,21.65,-20.05,-19.13,0,*7C
1498136600.08,9411,22.0,74284.5,21.63,-19.17,-18.21,0,*72
1498136601.32,9412,22.0,74282.8,21.65,-19.13,-18.11,0,*70
1498136602.54,9413,22.0,74286.0,21.65,-21.13,-20.29,0,*7A
1498136603.76,9414,22.0,74280.8,21.67,-20.05,-19.27,0,*7D
1498136605.01,9415,22.0,74282.8,21.65,-20.59,-19.81,0,*7B
1498136606.26,9416,22.0,74284.8,21.65,-20.43,-19.61,0,*7D
1498136607.47,9417,22.0,74286.5,21.63,-19.17,-18.25,0,*70
1498136608.68,9418,22.0,74286.3,21.63,-19.95,-19.17,0,*75
1498136609.93,9419,22.0,74280.5,21.65,-21.03,-20.29,0,*71
1498136611.14,9420,22.0,74284.0,21.63,-20.89,-20.05,0,*70
1498136612.36,9421,22.0,74286.0,21.65,-20.59,-19.75,0,*77
1498136613.6,9422,22.0,74284.3,21.63,-20.43,-19.65,0,*78
1498136614.86,9423,22.0,74282.5,21.61,-20.43,-19.57,0,*7A
1498136616.11,9424,22.0,74282.3,21.61,-20.93,-20.15,0,*7C
1498136617.38,9425,22.0,74284.3,21.61,-20.35,-19.57,0,*7D
1498136618.66,9426,22.0,74284.0,21.61,-20.15,-19.27,0,*7B
1498136619.91,9427,22.0,74284.5,21.57,-19.23,-18.49,0,*79
1498136621.12,9428,22.0,74286.0,21.59,-19.91,-19.13,0,*7F
1498136622.35,9429,22.0,74282.0,21.61,-19.81,-19.07,0,*71
1498136623.6,9430,22.0,74280.0,21.61,-19.57,-18.79,0,*7A
1498136624.86,9431,22.0,74284.8,21.61,-19.17,-18.31,0,*73
1498136626.13,9432,22.0,74284.3,21.61,-19.41,-18.59,0,*7D
1498136627.35,9433,22.0,74284.5,21.61,-19.95,-19.07,0,*7F
1498136628.6,9434,22.0,74286.3,21.61,-19.41,-18.65,0,*74
1498136629.81,9435,22.0,74286.0,21.63,-17.49,-16.59,0,*70
1498136631.05,9436,22.0,74286.3,21.63,-17.41,-16.59,0,*7B
1498136632.3,9437,22.0,74286.0,21.67,-17.17,-16.27,0,*74
1498136633.58,9438,22.0,74286.3,21.69,-17.17,-16.31,0,*72
1498136634.8,9439,22.0,74280.0,21.73,-17.69,-16.89,0,*72
1498136636.05,9440,22.0,74284.5,21.73,-19.95,-19.31,0,*7D
1498136637.3,9441,22.0,74284.5,21.73,-20.39,-19.65,0,*71
1498136638.55,9442,22.0,74282.5,21.71,-20.15,-19.31,0,*7F
1498136639.75,9443,22.06,74286.5,21.71,-19.75,-19.17,0,*76
1498136640.98,9444,22.0,74286.8,21.69,-19.37,-18.65,0,*7A
1498136642.23,9445,22.06,74286.8,21.69,-20.43,-19.81,0,*79
1498136643.48,9446,22.0,74284.3,21.69,-19.57,-18.79,0,*73
1498136644.76,9447,22.0,74286.3,21.69,-18.31,-17.55,0,*72
1498136645.97,9448,22.0,74286.3,21.71,-18.69,-17.83,0,*72
1498136647.2,9449,22.0,74284.5,21.71,-18.55,-17.83,0,*7C
1498136648.46,9450,22.0,74286.0,21.69,-19.95,-19.27,0,*70
1498136649.69,9451,22.0,74286.8,21.71,-19.23,-18.41,0,*74
1498136650.91,9452,22.0,74284.8,21.71,-18.89,-18.07,0,*74
1498136652.14,9453,22.0,74284.0,21.71,-18.07,-17.21,0,*78
1498136653.4,9454,22.0,74286.3,21.73,-17.41,-16.59,0,*7E
1498136654.62,9455,22.0,74284.3,21.75,-17.07,-16.45,0,*76
1498136655.82,9456,22.0,74286.0,21.79,-17.31,-16.41,0,*78
1498136657.06,9457,22.06,74286.8,21.81,-17.79,-16.97,0,*79
1498136658.31,9458,22.0,74282.8,21.81,-18.55,-17.83,0,*73
1498136659.56,9459,22.0,74284.0,21.81,-18.25,-17.41,0,*7B
1498136660.8,9460,22.0,74284.8,21.83,-19.31,-18.59,0,*71
1498136662.02,9461,22.0,74284.0,21.83,-18.93,-18.25,0,*72
1498136663.27,9462,22.06,74284.3,21.81,-19.85,-19.17,0,*75
1498136664.49,9463,22.06,74288.0,21.79,-19.71,-18.89,0,*7E
1498136665.71,9464,22.0,74284.0,21.81,-18.83,-18.17,0,*75
1498136666.96,9465,22.0,74286.3,21.81,-18.73,-17.79,0,*7C
1498136668.18,9466,22.06,74284.8,21.81,-17.69,-16.75,0,*76
1498136669.4,9467,22.0,74286.5,21.83,-17.93,-16.97,0,*7C
1498136670.63,9468,22.0,74282.3,21.85,-18.21,-17.35,0,*7A
1498136671.85,9469,22.0,74286.5,21.85,-17.73,-16.93,0,*7E
1498136673.09,9470,22.0,74284.0,21.85,-17.63,-16.83,0,*76
1498136674.3,9471,22.0,74284.3,21.89,-18.73,-17.87,0,*70
1498136675.49,9472,22.0,74282.8,21.87,-19.03,-18.41,0,*7E
1498136676.72,9473,22.06,74284.0,21.87,-18.45,-17.45,0,*77
1498136677.94,9474,22.0,74284.5,21.89,-18.73,-18.01,0,*74
1498136679.17,9475,22.0,74286.5,21.87,-19.57,-19.13,0,*7E
1498136680.39,9476,22.06,74284.0,21.87,-20.19,-19.47,0,*7C
1498136681.61,9477,22.0,74282.8,21.87,-18.79,-17.93,0,*77
1498136682.84,9478,22.06,74288.8,21.89,-18.93,-18.21,0,*74
1498136684.09,9479,22.06,74284.8,21.87,-18.35,-17.45,0,*7A
1498136685.33,9480,22.06,74286.0,21.89,-19.13,-18.35,0,*7F
1498136686.53,9481,22.0,74286.0,21.87,-20.63,-19.99,0,*7A
1498136687.77,9482,22.0,74284.5,21.87,-20.49,-19.61,0,*76
1498136688.97,9483,22.0,74286.0,21.87,-19.03,-18.07,0,*72
1498136690.22,9484,22.0,74286.8,21.87,-18.55,-17.79,0,*71
1498136691.44,9485,22.06,74288.0,21.87,-19.41,-18.79,0,*7B
1498136692.66,9486,22.06,74288.0,21.89,-18.83,-18.01,0,*76
1498136693.86,9487,22.06,74286.8,21.89,-18.65,-17.69,0,*7E
1498136695.09,9488,22.06,74284.5,21.89,-17.25,-16.37,0,*70
1498136696.34,9489,22.06,74286.5,21.91,-18.55,-17.69,0,*7A
1498136697.56,9490,22.0,74286.0,21.91,-19.03,-18.17,0,*76
1498136698.84,9491,22.06,74286.8,21.91,-19.65,-18.55,0,*71
1498136700.06,9492,22.06,74286.8,21.91,-19.37,-18.79,0,*7B
1498136701.29,9493,22.06,74286.0,21.91,-19.51,-18.73,0,*70
1498136702.52,9494,22.06,74284.3,21.91,-19.51,-18.69,0,*7C
1498136703.77,9495,22.06,74286.8,21.91,-20.43,-19.81,0,*73
1498136705.03,9496,22.06,74284.8,21.91,-20.79,-20.25,0,*7D
1498136706.25,9497,22.0,74286.0,21.87,-21.43,-20.49,0,*79
1498136707.5,9498,22.06,74284.8,21.89,-17.93,-16.69,0,*77
1498136708.75,9499,22.06,74286.5,21.89,-17.93,-17.03,0,*7B
1498136710.0,9500,22.06,74284.8,21.91,-18.73,-18.01,0,*7F
1498136711.23,9501,22.06,74282.5,21.93,-19.37,-18.55,0,*7C
1498136712.45,9502,22.06,74286.3,21.93,-18.73,-17.93,0,*7B
1498136713.67,9503,22.06,74284.8,21.93,-17.63,-16.55,0,*7F
1498136714.88,9504,22.06,74284.0,21.93,-17.35,-16.41,0,*7E
1498136716.13,9505,22.0,74282.8,21.95,-17.49,-16.69,0,*78
1498136717.35,9506,22.06,74284.3,21.97,-18.65,-18.01,0,*78
1498136718.59,9507,22.06,74288.5,21.95,-19.13,-18.45,0,*7B
1498136719.8,9508,22.06,74284.8,21.95,-20.09,-19.47,0,*76
1498136721.06,9509,22.06,74286.5,21.95,-19.23,-18.21,0,*74
1498136722.25,9510,22.0,74286.8,21.97,-17.31,-16.37,0,*7A
1498136723.45,9511,22.06,74284.5,21.97,-16.83,-15.99,0,*74
1498136724.7,9512,22.06,74290.0,21.99,-18.93,-18.11,0,*7B
1498136725.96,9513,22.06,74288.3,21.99,-19.31,-18.45,0,*72
1498136727.21,9514,22.06,74290.0,22.03,-19.31,-18.49,0,*79
1498136728.44,9515,22.06,74288.0,22.03,-18.99,-18.11,0,*76
1498136729.69,9516,22.06,74286.8,21.99,-19.51,-18.55,0,*70
1498136730.95,9517,22.06,74288.0,21.99,-18.17,-17.21,0,*7E
1498136732.19,9518,22.06,74288.0,22.03,-18.11,-17.17,0,*72
1498136733.42,9519,22.06,74288.5,22.03,-17.35,-16.41,0,*78
1498136734.62,9520,22.06,74284.8,22.05,-16.79,-15.75,0,*79
1498136735.87,9521,22.06,74284.3,22.09,-17.25,-16.31,0,*7F
1498136737.13,9522,22.06,74286.5,22.09,-17.21,-16.09,0,*73
1498136738.4,9523,22.0,74284.3,22.11,-17.59,-16.51,0,*79
1498136739.65,9524,22.06,74286.3,22.11,-17.41,-16.45,0,*72
1498136740.87,9525,22.06,74286.8,22.15,-16.97,-15.95,0,*73
1498136742.12,9526,22.06,74286.8,22.17,-17.25,-16.31,0,*77
1498136743.36,9527,22.06,74284.8,22.19,-17.69,-16.65,0,*71
1498136744.61,9528,22.06,74284.5,22.19,-18.49,-17.55,0,*71
1498136745.87,9529,22.06,74282.0,22.19,-18.59,-17.55,0,*71
1498136747.1,9530,22.06,74284.8,22.19,-18.79,-17.87,0,*74
1498136748.37,9531,22.06,74284.3,22.19,-18.35,-17.59,0,*7E
1498136749.61,9532,22.0,74280.8,22.19,-17.69,-16.69,0,*79
1498136750.89,9533,22.06,74280.8,22.21,-17.55,-16.65,0,*70
1498136752.13,9534,22.06,74280.3,22.21,-17.69,-16.65,0,*78
1498136753.36,9535,22.06,74282.5,22.25,-17.35,-16.41,0,*72
1498136754.61,9536,22.06,74280.8,22.25,-17.31,-16.27,0,*75
1498136755.81,9537,22.06,74280.5,22.27,-17.49,-16.75,0,*7E
1498136757.05,9538,22.06,74280.8,22.29,-17.31,-16.27,0,*77
1498136758.3,9539,22.06,74282.5,22.29,-18.11,-17.07,0,*78
1498136759.56,9540,22.06,74282.3,22.31,-17.97,-17.07,0,*7E
1498136760.81,9541,22.06,74280.5,22.31,-17.07,-16.13,0,*72
1498136762.03,9542,22.06,74282.8,22.31,-16.89,-15.89,0,*76
1498136763.31,9543,22.06,74280.5,22.33,-16.13,-15.01,0,*76
1498136764.56,9544,22.06,74282.3,22.37,-16.09,-15.07,0,*78
1498136765.76,9545,22.06,74284.8,22.39,-16.75,-15.75,0,*79
1498136766.96,9546,22.06,74286.8,22.39,-17.83,-16.93,0,*79
1498136768.21,9547,22.06,74280.0,22.39,-17.25,-16.17,0,*78
1498136769.43,9548,22.06,74280.3,22.41,-17.83,-16.93,0,*78
1498136770.71,9549,22.06,74284.8,22.41,-18.31,-17.41,0,*71
1498136771.98,9550,22.06,74282.5,22.41,-17.55,-16.51,0,*74
1498136773.2,9551,22.06,74280.8,22.43,-16.97,-16.13,0,*7E
1498136774.42,9552,22.06,74280.3,22.47,-17.31,-16.27,0,*73
1498136775.68,9553,22.06,74280.3,22.47,-17.11,-16.09,0,*7C
1498136776.95,9554,22.06,74284.8,22.49,-17.55,-16.65,0,*7F
1498136778.2,9555,22.06,74282.3,22.49,-17.79,-16.75,0,*71
1498136779.46,9556,22.06,74278.0,22.49,-17.63,-16.65,0,*78
1498136780.71,9557,22.06,74280.5,22.51,-18.01,-17.11,0,*79
1498136781.94,9558,22.06,74282.3,22.49,-17.87,-16.89,0,*7E
1498136783.19,9559,22.06,74280.8,22.51,-18.31,-17.63,0,*71
1498136784.41,9560,22.06,74280.3,22.51,-18.69,-17.63,0,*76
1498136785.61,9561,22.06,74280.8,22.51,-17.69,-16.79,0,*72
1498136786.86,9562,22.06,74280.5,22.51,-17.21,-16.23,0,*72
1498136788.08,9563,22.06,74280.3,22.51,-18.41,-17.55,0,*7A
1498136789.36,9564,22.06,74282.3,22.53,-17.97,-17.03,0,*78
1498136790.62,9565,22.06,74280.8,22.53,-17.45,-16.59,0,*78
1498136791.87,9566,22.06,74284.5,22.55,-18.31,-17.45,0,*7D
1498136793.12,9567,22.06,74278.8,22.55,-17.79,-17.03,0,*7D
1498136794.31,9568,22.06,74282.8,22.55,-17.69,-16.97,0,*7F
1498136795.56,9569,22.06,74282.8,22.55,-17.45,-16.51,0,*7A
1498136796.79,9570,22.06,74280.5,22.57,-16.79,-15.95,0,*75
1498136798.01,9571,22.06,74282.3,22.59,-17.97,-16.97,0,*7A
1498136799.24,9572,22.06,74280.8,22.59,-18.17,-17.25,0,*76
1498136800.47,9573,22.06,74278.8,22.59,-18.93,-18.11,0,*73
1498136801.69,9574,22.06,74280.3,22.57,-19.51,-18.79,0,*7B
1498136802.94,9575,22.06,74280.8,22.57,-18.79,-17.97,0,*7E
1498136804.2,9576,22.06,74282.0,22.57,-18.93,-18.11,0,*78
1498136805.45,9577,22.06,74282.5,22.57,-18.45,-17.63,0,*78
1498136806.7,9578,22.06,74276.5,22.59,-17.41,-16.51,0,*72
1498136807.92,9579,22.06,74280.3,22.59,-17.07,-16.37,0,*71
1498136809.15,9580,22.06,74278.8,22.59,-19.17,-18.31,0,*70
1498136810.4,9581,22.06,74280.8,22.59,-18.01,-17.41,0,*7F
1498136811.63,9582,22.06,74282.5,22.59,-18.41,-17.63,0,*78
1498136812.85,9583,22.06,74284.3,22.59,-18.41,-17.63,0,*79
1498136814.07,9584,22.06,74282.8,22.61,-19.03,-18.41,0,*7D
1498136815.34,9585,22.06,74280.3,22.57,-19.65,-18.89,0,*7D
1498136816.55,9586,22.06,74282.8,22.59,-18.11,-17.35,0,*7A
1498136817.77,9587,22.06,74282.0,22.59,-18.73,-18.01,0,*77
1498136819.01,9588,22.06,74282.3,22.59,-19.81,-18.93,0,*7F
1498136820.28,9589,22.06,74284.0,22.57,-19.65,-18.89,0,*71
1498136821.5,9590,22.06,74286.0,22.59,-19.23,-18.45,0,*75
1498136822.78,9591,22.06,74286.0,22.57,-18.31,-17.63,0,*73
1498136824.01,9592,22.06,74286.3,22.57,-19.17,-18.45,0,*7E
1498136825.26,9593,22.06,74284.8,22.57,-18.59,-17.83,0,*71
1498136826.49,9594,22.06,74284.8,22.57,-19.17,-18.41,0,*7C
1498136827.74,9595,22.06,74286.0,22.57,-18.59,-17.83,0,*77
1498136829.02,9596,22.06,74286.0,22.57,-17.55,-16.65,0,*7E
1498136830.25,9597,22.06,74284.5,22.59,-17.41,-16.59,0,*7B
1498136831.5,9598,22.06,74284.0,22.59,-17.07,-16.23,0,*7B
1498136832.71,9599,22.06,74286.8,22.61,-17.31,-16.45,0,*74
1498136833.97,9600,22.06,74284.0,22.61,-17.45,-16.59,0,*79
1498136835.19,9601,22.06,74286.0,22.63,-17.17,-16.41,0,*74
1498136836.45,9602,22.06,74286.8,22.65,-17.17,-16.37,0,*70
1498136837.64,9603,22.06,74286.5,22.67,-16.45,-15.67,0,*73
1498136838.87,9604,22.06,74286.0,22.71,-17.55,-16.79,0,*7F
1498136840.12,9605,22.06,74286.5,22.73,-16.89,-16.13,0,*70
1498136841.4,9606,22.06,74288.5,22.73,-16.65,-15.85,0,*7D
1498136842.66,9607,22.06,74290.3,22.73,-16.89,-16.17,0,*76
1498136843.9,9608,22.06,74290.3,22.77,-17.55,-16.93,0,*71
1498136845.15,9609,22.06,74288.0,22.77,-18.25,-17.59,0,*7F
1498136846.38,9610,22.06,74284.8,22.75,-18.17,-17.41,0,*7D
1498136847.63,9611,22.06,74290.5,22.77,-16.69,-15.95,0,*72
1498136848.9,9612,22.06,74286.8,22.77,-17.11,-16.31,0,*72
1498136850.12,9613,22.06,74284.8,22.79,-19.41,-18.73,0,*7E
1498136851.34,9614,22.06,74284.8,22.79,-19.41,-18.73,0,*79
1498136852.55,9615,22.06,74288.5,22.79,-18.93,-18.25,0,*75
1498136853.77,9616,22.06,74288.5,22.79,-18.17,-17.45,0,*73
1498136855.01,9617,22.06,74288.3,22.79,-18.01,-17.25,0,*73
1498136856.24,9618,22.06,74290.5,22.79,-17.35,-16.65,0,*71
1498136857.48,9619,22.06,74288.0,22.81,-17.07,-16.03,0,*76
1498136858.74,9620,22.06,74292.3,22.83,-16.69,-15.81,0,*7E
1498136859.96,9621,22.06,74286.8,22.87,-16.55,-15.67,0,*7C
1498136861.18,9622,22.06,74290.8,22.87,-17.69,-16.93,0,*79
1498136862.43,9623,22.06,74286.0,22.87,-18.45,-17.55,0,*72
1498136863.65,9624,22.06,74288.5,22.87,-17.31,-16.55,0,*78
1498136864.88,9625,22.06,74288.5,22.89,-16.97,-16.17,0,*7C
1498136866.13,9626,22.06,74288.5,22.87,-17.21,-16.37,0,*7F
1498136867.34,9627,22.06,74284.8,22.89,-16.45,-15.63,0,*71
1498136868.59,9628,22.06,74286.0,22.95,-16.17,-15.25,0,*76
1498136869.83,9629,22.06,74286.0,22.95,-16.51,-15.67,0,*73
1498136871.06,9630,22.06,74284.3,22.95,-16.83,-15.95,0,*79
1498136872.32,9631,22.06,74284.8,22.99,-16.13,-15.29,0,*7A
1498136873.51,9632,22.06,74284.8,23.01,-16.83,-15.99,0,*7B
1498136874.74,9633,22.06,74284.3,23.03,-16.79,-16.03,0,*7D
1498136875.94,9634,22.06,74284.8,23.01,-16.75,-15.95,0,*78
1498136877.18,9635,22.06,74284.5,23.03,-17.17,-16.41,0,*74
1498136878.38,9636,22.06,74284.0,23.05,-16.83,-16.03,0,*7B
1498136879.64,9637,22.06,74286.5,23.07,-16.17,-15.29,0,*7E
1498136880.89,9638,22.06,74282.8,23.07,-15.99,-14.97,0,*70
1498136882.15,9639,22.06,74284.3,23.07,-16.09,-15.29,0,*7F
1498136883.39,9640,22.06,74286.3,23.11,-16.93,-16.17,0,*7B
1498136884.64,9641,22.06,74280.0,23.11,-16.59,-15.81,0,*70
1498136885.87,9642,22.06,74286.0,23.15,-16.41,-15.53,0,*71
1498136887.14,9643,22.06,74284.5,23.17,-16.31,-15.35,0,*75
1498136888.4,9644,22.06,74286.3,23.17,-16.37,-15.57,0,*70
1498136889.65,9645,22.06,74284.0,23.21,-17.83,-17.17,0,*7C
1498136890.87,9646,22.06,74284.3,23.21,-17.31,-16.45,0,*70
1498136892.13,9647,22.06,74286.5,23.21,-18.83,-17.97,0,*79
1498136893.36,9648,22.06,74284.8,23.19,-19.31,-18.69,0,*7B
1498136894.62,9649,22.06,74286.0,23.19,-18.55,-17.97,0,*77
1498136895.85,9650,22.06,74286.8,23.21,-18.83,-18.07,0,*79
1498136897.07,9651,22.06,74290.5,23.17,-19.07,-18.25,0,*70
1498136898.32,9652,22.06,74286.5,23.17,-18.79,-17.97,0,*7D
1498136899.58,9653,22.06,74286.0,23.17,-17.83,-17.11,0,*78
1498136900.81,9654,22.06,74284.0,23.17,-18.11,-17.35,0,*7D
1498136902.04,9655,22.06,74284.8,23.19,-19.27,-18.65,0,*7C
1498136903.27,9656,22.06,74286.3,23.19,-18.89,-18.21,0,*7A
1498136904.54,9657,22.06,74282.3,23.17,-18.59,-17.97,0,*7A
1498136905.79,9658,22.06,74284.3,23.15,-18.99,-18.31,0,*78
1498136907.06,9659,22.13,74290.8,23.15,-19.41,-18.59,0,*73